SES-8

Last updated on Sat Apr 13 2024 01:02:38 GMT+0100 (British Summer Time)

1 39460U 13071A 24103.62550856 -.00000279 00000+0 00000+0 0 9998 2 39460 0.0115 244.0465 0002147 154.6672 122.7600 1.00272844 36455
UTC large
Height (km)
Speed (km/s)
/
Latitude / Longitude
Inclination (degrees)
Orbital Period (minutes)
Azimuth
Elevation
Range (km)
Doppler Factor

Next 0 passes for location: London (51.5072 / 0.1276)

Sorry there are no passes over London.